Tracking 30260 objects as of 15-Feb-2025
HD Live streaming from Space Station
objects crossing your sky now

STARLINK-11452

Track STARLINK-11452 now!
10-day predictions
STARLINK-11452 is classified as:


NORAD ID: 62511
Int'l Code: 2025-004A
Perigee: 341.0 km
Apogee: 346.1 km
Inclination: 43.0 °
Period: 91.3 minutes
Semi major axis: 6714 km
RCS: Unknown
Launch date: January 8, 2025
Source: United States (US)
Launch site: AIR FORCE EASTERN TEST RANGE (AFETR)
Your satellite tracking list
Your tracking list is empty




NASA's NSSDC Master Catalog

Two Line Element Set (TLE):
1 62511U 25004A   25045.84713253  .00004992  00000-0  31484-4 0  9993
2 62511  42.9984 249.1837 0003758 272.7889  87.2551 15.77896070  7121
Source of the keplerian elements: AFSPC